Weather History for Evanston, WY

Change the Weather History Date:

Sunday, November 25, 2012

  Actual Average Record
Temperature  
Mean Temperature 37 °F 25 °F  
Max Temperature 44 °F 33 °F 52 °F (2008)
Min Temperature 29 °F 17 °F -8 °F (2010)
Degree Days  
Heating Degree Days 28 40  
Month to date heating degree days 699 854  
Since 1 July heating degree days 1510 1907  
Cooling Degree Days 0 0  
Month to date cooling degree days 0 0  
Year to date cooling degree days 346 162  
Moisture  
Dew Point 20 °F    
Average Humidity 44    
Maximum Humidity 54    
Minimum Humidity 33    
Precipitation  
Precipitation 0.00 in 0.02 in 0.09 in (2001)
Month to date precipitation 0.52 0.94  
Year to date precipitation 5.55 11.45  
Sea Level Pressure  
Sea Level Pressure 29.99 in    
Wind  
Wind Speed 14 mph (WSW)    
Max Wind Speed 24 mph    
Max Gust Speed 36 mph    
Visibility 10 miles    
Events      
T = Trace of Precipitation, MM = Missing Value Source: NWS Daily Summary

Daily Weather History Graph

Daily Weather History Graph

Search for Another Location

Airport:

Trip Planner

Search our weather history database for the weather conditions in past years. The results will help you decide how hot, cold, wet, or windy it might be!

Date:

Astronomy

Nov. 25, 2012 Rise Set
Actual Time 7:24 AM MST 4:57 PM MST
Civil Twilight 6:54 AM MST 5:28 PM MST
Nautical Twilight 6:20 AM MST 6:02 PM MST
Astronomical Twilight 5:47 AM MST 6:35 PM MST
Moon 3:17 PM MST (11/25) 4:40 AM MST (11/25)
Length of Visible Light 10h 34m
Length of Day
9h 33m
Waxing Gibbous, 93% of the Moon is Illuminated
Nov 25
Waxing Gibbous
Nov 28
Full
Dec 6
Last Quarter
Dec 13
New
Dec 19
First Quarter

Hourly Weather History & Observations

Time (MST) Temp. Windchill Dew Point Humidity Pressure Visibility Wind Dir Wind Speed Gust Speed Precip Events Conditions
12:53 AM 32.0 °F 24.8 °F 15.1 °F 50% 29.95 in 10.0 mi South 8.1 mph - N/A   Clear
1:53 AM 32.0 °F 22.5 °F 16.0 °F 52% 29.93 in 10.0 mi WSW 12.7 mph - N/A   Clear
2:53 AM 30.9 °F 19.8 °F 16.0 °F 54% 29.92 in 10.0 mi SW 16.1 mph - N/A   Clear
3:53 AM 30.9 °F 20.7 °F 16.0 °F 54% 29.90 in 10.0 mi SW 13.8 mph - N/A   Clear
5:53 AM 32.0 °F 22.5 °F 15.1 °F 50% 29.94 in 10.0 mi WSW 12.7 mph - N/A   Clear
6:53 AM 32.0 °F 23.0 °F 15.1 °F 50% 29.97 in 10.0 mi WSW 11.5 mph - N/A   Clear
7:53 AM 30.9 °F 21.2 °F 15.1 °F 52% 29.98 in 10.0 mi WSW 12.7 mph - N/A   Clear
8:53 AM 39.0 °F 31.8 °F 17.1 °F 41% 29.96 in 10.0 mi WSW 11.5 mph - N/A   Clear
9:53 AM 43.0 °F 35.4 °F 17.1 °F 35% 29.95 in 10.0 mi WSW 16.1 mph - N/A   Partly Cloudy
10:53 AM 42.1 °F 34.2 °F 16.0 °F 35% 29.95 in 10.0 mi West 16.1 mph - N/A   Mostly Cloudy
11:53 AM 41.0 °F 30.9 °F 18.0 °F 40% 29.97 in 10.0 mi West 24.2 mph 29.9 mph N/A   Overcast
12:53 PM 39.0 °F 28.5 °F 21.9 °F 50% 29.98 in 10.0 mi WSW 23.0 mph 35.7 mph N/A   Overcast
1:53 PM 41.0 °F 34.7 °F 21.0 °F 45% 29.97 in 10.0 mi WSW 10.4 mph - N/A   Overcast
2:53 PM 41.0 °F 32.5 °F 24.1 °F 51% 29.98 in 10.0 mi WSW 17.3 mph 23.0 mph N/A   Partly Cloudy
3:53 PM 39.0 °F 31.8 °F 25.0 °F 57% 29.99 in 10.0 mi West 11.5 mph - N/A   Mostly Cloudy
4:53 PM 37.0 °F 34.5 °F 25.0 °F 62% 30.02 in 10.0 mi East 3.5 mph - N/A   Mostly Cloudy
5:53 PM 33.1 °F 27.7 °F 24.1 °F 70% 30.03 in 10.0 mi West 5.8 mph - N/A   Clear
6:53 PM 32.0 °F 23.6 °F 25.0 °F 75% 30.05 in 10.0 mi West 10.4 mph - N/A   Clear
7:53 PM 28.9 °F 19.8 °F 24.1 °F 82% 30.09 in 10.0 mi West 10.4 mph - N/A   Clear
8:53 PM 30.0 °F 22.4 °F 24.1 °F 79% 30.05 in 10.0 mi West 8.1 mph - N/A   Clear
9:53 PM 28.9 °F 23.9 °F 23.0 °F 78% 30.06 in 10.0 mi South 4.6 mph - N/A   Clear
10:53 PM 27.0 °F 19.5 °F 21.9 °F 81% 30.08 in 10.0 mi SW 6.9 mph - N/A   Clear
11:53 PM 28.9 °F 25.2 °F 23.0 °F 78% 30.09 in 10.0 mi WSW 3.5 mph - N/A   Clear